Location: Springfield
(37.2150°N, 93.2980°W)
Time: 18:09:29
(UTC-05:00)

Daily predictions for brighter satellites

Satellite Brightness Start Highest point End
(mag) Time Altitude Azimuth Time Altitude Azimuth Time Altitude Azimuth
Cosmos 494 Rocket 4.5 20:49:00 10° NNW 20:54:14 65° WSW 20:59:23 10° S
NOSS 2-2 (C) 4.2 20:52:33 10° S 20:56:04 29° ESE 20:59:54 10° NE
Cosmos 1892 3.6 20:54:48 10° SSE 20:58:07 29° E 21:01:28 10° NNE
H-2A R/B 2.7 20:54:49 10° SSE 20:58:31 88° WSW 21:02:15 10° NNW
Meteor 2-10 Rocket 4.5 20:53:12 10° N 20:58:33 37° ENE 21:03:47 10° SE
Envisat 4.1 20:54:58 10° SE 20:59:13 28° ENE 21:03:28 10° NNE
Cosmos 2181 Rocket 4.1 20:53:06 10° N 20:59:34 76° E 21:05:57 10° SSE
USA 186 1.7 20:57:02 10° S 20:59:58 85° WSW 21:03:08 10° NNW
Cosmos 1733 Rocket 4.0 20:58:36 10° SSE 21:02:24 29° E 21:06:12 10° NNE
ERBS 4.3 21:11:09 10° N 21:13:44 19° NE 21:16:17 10° E
NOSS 2-2 (E) 3.6 21:11:12 10° SSW 21:15:10 54° ESE 21:19:40 10° NE
Cosmos 2074 Rocket 4.0 21:14:58 10° S 21:21:09 64° E 21:27:22 10° NNE
SPOT 5 3.9 21:19:21 12° SE 21:23:35 35° ENE 21:28:22 10° N
COSMOS 2406 3.7 21:21:02 10° N 21:26:33 45° ENE 21:30:59 15° SE
Cosmos 909 Rocket 4.2 21:20:37 10° SSW 21:26:57 78° ESE 21:34:28 10° NNE
SJ-11-01 4.3 21:22:21 10° SSE 21:27:05 81° ENE 21:31:51 10° N
H-2A R/B 2.4 21:24:05 12° SE 21:27:53 48° ENE 21:32:00 10° N
ERS-1 Rocket 3.0 21:22:52 10° SSE 21:27:54 81° ENE 21:32:57 10° N
Cosmos 1356 Rocket 3.4 21:24:32 10° S 21:28:42 77° E 21:32:58 10° NNE
Meteor 1-10 Rocket 4.5 21:26:34 10° N 21:32:18 54° ENE 21:37:11 14° SSE
ALOS 4.0 21:29:41 10° SSW 21:33:51 32° W 21:38:02 10° NNW
ARGOS 4.4 21:38:34 16° ESE 21:41:28 25° ENE 21:45:47 10° NNE
ATLAS 5 CENTAUR R/B 2.7 21:36:25 10° NNW 21:42:24 59° NE 21:46:55 20° SE
PSLV R/B 3.9 21:40:59 10° WNW 21:44:23 53° NNE 21:46:43 19° E
Cosmos 2278 Rocket 3.1 21:43:31 18° SE 21:46:12 26° ESE 21:50:50 10° NE
OPS 6432 4.3 21:42:55 10° SSW 21:46:34 84° NW 21:49:43 10° NNE
Sich 1 Rocket 3.8 21:42:39 13° SSE 21:46:38 53° E 21:51:07 10° NNE
Abrixas rocket 2.3 21:44:58 10° WNW 21:48:22 70° SW 21:49:51 30° SE
Cosmos 1844 4.0 21:43:03 10° S 21:48:26 44° ESE 21:53:54 10° NE
Cosmos 2341 Rocket 4.5 21:46:29 17° SSE 21:50:56 41° E 21:56:45 10° NNE
USA 234 3.6 21:46:08 10° ENE 21:52:13 41° SE 21:58:15 10° SSW
CZ-4B R/B 4.0 21:48:13 10° NNE 21:52:45 35° E 21:54:54 24° SE
Cosmos 1825 3.0 21:54:31 29° ESE 21:55:16 31° E 21:58:41 10° NNE
Cosmos 2056 Rocket 3.7 21:53:18 10° SSW 21:58:28 71° WNW 22:03:36 10° NNE
Cosmos 1674 Rocket 3.5 21:54:45 10° N 21:59:14 83° E 22:02:00 23° S
Cosmos 1844 Rocket 2.6 21:53:57 10° SSW 21:59:35 76° ESE 22:05:15 10° NNE
Cosmos 1939 Rocket 3.4 21:57:31 15° S 22:00:36 52° W 22:04:25 10° NNW
UNK 4.5 21:55:20 10° NNE 22:01:31 62° ESE 22:07:06 12° S
Cosmos 1184 Rocket 4.2 22:04:01 25° ENE 22:04:01 25° ENE 22:06:15 10° NE
Meteor 1-27 Rocket 3.8 21:58:17 10° N 22:03:47 58° E 22:06:41 27° SSE
Cosmos 1782 2.8 22:02:22 10° N 22:06:24 80° W 22:08:35 26° S
Cosmos 2082 Rocket 4.3 22:04:29 10° NNE 22:06:59 13° NE 22:09:27 10° ENE
BREEZE-M DEB 4.4 22:03:31 10° SW 22:08:12 67° SE 22:09:57 24° ENE
Cosmos 1782 Rocket 4.1 22:07:22 34° SE 22:08:32 41° E 22:12:44 10° NNE
Atlas Centaur 2 2.2 22:09:20 10° WSW 22:12:00 28° SSW 22:12:00 28° SSW
COSMOS 2487 4.1 22:10:52 10° NNE 22:13:43 21° ENE 22:13:44 21° ENE
NOSS 5 (C) 4.4 22:14:32 55° E 22:14:32 55° E 22:17:24 10° NE
YAOGAN 6 2.4 22:14:37 52° SSE 22:15:22 77° ENE 22:18:52 10° N
SL-27 R/B 2.5 22:11:44 10° NNW 22:15:24 81° WSW 22:16:20 47° S
Coronas F rocket 4.4 22:13:52 10° WSW 22:15:27 14° WNW 22:17:02 10° NW
Cosmos 1408 2.6 22:15:26 51° SE 22:16:02 60° E 22:19:39 10° NNE
Cosmos 962 Rocket 4.4 22:14:40 22° S 22:18:47 69° E 22:24:57 10° NNE
MetOp-A 4.1 22:16:22 26° S 22:19:28 84° WSW 22:24:50 10° NNW
CZ-4 R/B 4.0 22:16:02 10° NNE 22:20:34 48° E 22:21:34 41° SE
COS B Rocket 3.5 22:18:27 10° N 22:22:39 69° W 22:24:24 31° SSW
Cosmos 2154 Rocket 4.0 22:17:46 12° S 22:23:37 84° W 22:29:51 10° N
CENTAUR R/B 3.5 22:17:31 10° NW 22:25:19 59° WSW 22:30:41 23° S
SL-08 RB Rocket 4.0 22:24:57 42° ESE 22:25:58 52° ENE 22:30:28 10° N
Cosmos 1975 Rocket 3.2 22:22:42 10° N 22:26:54 49° E 22:27:24 46° ESE
Cosmos 1606 2.8 22:24:32 10° N 22:28:27 73° W 22:29:27 47° SSW
NOAA 11 4.2 22:28:50 39° SSE 22:30:54 71° ENE 22:36:24 10° N
FALCON 9 R/B 4.5 21:53:27 10° WNW 22:31:12 51° SW 22:37:44 27° SSE
Okean 3 3.4 22:29:19 10° N 22:33:37 73° E 22:34:14 61° SE
Cosmos 1908 Rocket 4.2 22:31:02 20° SSW 22:33:55 55° W 22:38:16 10° N
USA 245 3.0 22:35:53 64° NW 22:35:53 64° NW 22:38:54 10° NNW
H-2A R/B 2.7 22:36:42 38° ESE 22:37:52 43° ENE 22:42:55 10° N
Cosmos 1242 Rocket 3.4 22:34:36 10° N 22:37:28 37° NE 22:37:28 37° NE
Cosmos 1378 Rocket 3.8 22:39:55 10° NNW 22:44:11 62° W 22:45:11 46° SSW
Cosmos 1295 Rocket 4.4 22:42:46 34° S 22:45:44 82° E 22:52:03 10° N
Cosmos 1420 Rocket 3.9 22:46:17 54° SSE 22:47:20 68° ESE 22:52:32 10° NNE
Cosmos 2151 Rocket 4.4 22:49:00 37° ENE 22:49:00 37° ENE 22:52:29 10° NNE
ERBS 3.7 22:47:27 10° WNW 22:50:03 33° W 22:50:03 33° W
SPOT 1/Viking Rocket 3.9 22:51:06 39° SSW 22:52:51 60° W 22:58:00 10° NNW
CZ-3C R/B 4.0 22:44:02 10° WSW 22:55:18 20° SSW 22:55:54 20° SSW
Cosmos 2366 rocket 4.1 22:56:09 50° SE 22:57:21 59° E 23:03:32 10° NNE
Cosmos 489 Rocket 4.4 22:51:21 10° NNW 22:57:34 77° ENE 22:59:03 54° SE
Cosmos 407 Rocket 4.4 22:55:29 10° NNW 23:00:24 41° WSW 23:02:05 32° SW
Landsat 7 3.6 23:00:35 77° SSE 23:00:55 86° ENE 23:05:41 10° NNW
Meteor 1-14 Rocket 4.1 23:00:05 58° SSE 23:01:12 76° E 23:06:51 10° NNE
Cosmos 1238 Rocket 3.9 22:58:39 10° NNW 23:01:14 32° W 23:01:14 32° W
Cosmos 2084 4.0 23:08:44 48° WNW 23:08:53 48° NW 23:12:37 10° NNE
Intercosmos 25 4.2 23:11:44 42° W 23:11:47 42° W 23:14:58 10° N
Spot 4 4.1 23:13:28 58° ENE 23:13:28 58° ENE 23:18:02 10° N
ASTEX 1 4.2 23:08:42 10° NNE 23:12:25 38° ENE 23:12:25 38° ENE
Cosmos 614 Rocket 4.0 23:11:30 10° NNW 23:16:24 63° ENE 23:16:24 63° ENE
Terra 1.7 23:16:52 82° NNE 23:16:52 82° NNE 23:21:27 10° NNW
Cosmos 1140 Rocket 3.3 23:12:20 10° NNW 23:17:29 80° WSW 23:17:37 79° SW
Cosmos 2218 Rocket 4.0 23:17:25 49° SSW 23:19:17 80° W 23:25:43 10° N
Okean 2 Rocket 4.5 23:20:05 29° WSW 23:21:11 34° WNW 23:25:14 10° NNW
ARGOS 4.2 23:20:05 32° SW 23:21:29 37° W 23:26:26 10° NNW
DMSP B5D2-2 4.0 23:18:24 10° N 23:23:37 80° WNW 23:24:02 73° SW
ATLAS 5 CENTAUR R/B 4.0 23:22:02 10° WNW 23:26:49 23° WSW 23:28:29 21° SW
BREEZE-M DEB (TANK) 3.0 23:19:21 10° NW 23:26:27 67° WNW 23:26:27 67° WNW
Cosmos 2278 Rocket 3.4 23:25:14 12° SW 23:30:02 39° WNW 23:35:20 10° N
USA 234 3.9 23:28:57 10° NE 23:35:16 53° NW 23:41:33 10° WSW
Cosmos 1850 Rocket 4.1 23:32:38 10° NNW 23:37:42 69° W 23:37:42 69° W
Cosmos 1833 Rocket 3.0 23:33:41 10° NNW 23:39:00 53° ENE 23:39:00 53° ENE
Cosmos 1727 Rocket 3.8 23:33:32 10° N 23:39:43 83° W 23:40:11 76° SSW
Timation 2 Rocket 4.1 23:44:27 10° NNW 23:50:19 58° WSW 23:50:19 58° WSW
Cosmos 2082 Rocket 2.2 23:46:10 10° NNW 23:51:28 77° N 23:51:28 77° N
